Location: Erfurt
(50.9688°N, 11.0193°E)
Time: 11:03:32
(UTC+01:00)

ISS - Pass Details

Date: 10 February 2018
Orbit: 403 x 407 km, 51.6° (Epoch: 20 February)

Event Time Altitude Azimuth Distance (km) Brightness Sun altitude
Rises 18:39:58 0° 285° (WNW) 2,322 1.4 -12.5°
Reaches altitude 10° 18:42:11 10° 274° (W) 1,460 0.4 -12.9°
Maximum altitude 18:45:06 30° 211° (SSW) 750 -2.1 -13.3°
Drops below altitude 10° 18:48:01 10° 148° (SSE) 1,455 -1.3 -13.8°
Enters shadow 18:48:17 - 146° (SE) 1,558 -1.1 -13.8°
